TimeCDT,TemperatureF,Dew PointF,Humidity,Sea Level PressureIn,VisibilityMPH,Wind Direction,Wind SpeedMPH,Gust SpeedMPH,PrecipitationIn,Events,Conditions,WindDirDegrees,DateUTC
12:58 AM,60.1,56.7,88,29.76,10.0,NW,9.2,-,N/A,,Partly Cloudy,310,2013-06-28 05:58:00
1:58 AM,62.1,57.6,85,29.75,10.0,West,3.5,-,N/A,,Scattered Clouds,260,2013-06-28 06:58:00
2:58 AM,60.3,57.0,89,29.73,10.0,WNW,4.6,-,N/A,,Clear,290,2013-06-28 07:58:00
3:58 AM,59.7,55.8,87,29.73,10.0,WNW,8.1,-,N/A,,Clear,290,2013-06-28 08:58:00
4:58 AM,57.4,54.5,90,29.73,10.0,West,10.4,-,N/A,,Clear,270,2013-06-28 09:58:00
5:58 AM,58.1,54.9,89,29.74,10.0,WNW,6.9,-,N/A,,Clear,300,2013-06-28 10:58:00
6:58 AM,64.8,57.9,78,29.73,10.0,WNW,9.2,-,N/A,,Clear,300,2013-06-28 11:58:00
7:58 AM,69.3,60.1,72,29.70,10.0,WNW,10.4,17.3,N/A,,Clear,300,2013-06-28 12:58:00
8:58 AM,71.6,59.9,66,29.70,10.0,NW,18.4,23.0,N/A,,Clear,320,2013-06-28 13:58:00
9:58 AM,73.4,60.8,65,29.69,10.0,WNW,16.1,18.4,N/A,,Overcast,300,2013-06-28 14:58:00
10:58 AM,69.8,60.8,73,29.69,10.0,WNW,9.2,-,N/A,,Overcast,300,2013-06-28 15:58:00
11:09 AM,68.0,60.8,78,29.70,10.0,NW,8.1,-,N/A,Rain,Light Rain Showers,310,2013-06-28 16:09:00
11:18 AM,69.8,60.8,73,29.70,10.0,WNW,5.8,-,N/A,,Mostly Cloudy,290,2013-06-28 16:18:00
11:39 AM,69.8,60.8,73,29.70,10.0,WNW,9.2,-,N/A,,Light Drizzle,300,2013-06-28 16:39:00
11:58 AM,68.0,62.6,83,29.71,9.0,NW,11.5,-,N/A,Rain,Light Rain,320,2013-06-28 16:58:00
12:58 PM,68.0,64.4,88,29.70,2.0,WNW,9.2,-,N/A,Rain,Heavy Rain,300,2013-06-28 17:58:00
1:00 PM,68.0,64.4,88,29.70,1.0,NW,11.5,-,N/A,Rain,Heavy Rain,320,2013-06-28 18:00:00
1:05 PM,66.2,64.4,94,29.70,0.8,NNW,15.0,20.7,N/A,Rain,Heavy Rain,330,2013-06-28 18:05:00
1:10 PM,64.4,64.4,100,29.70,0.8,NW,12.7,20.7,N/A,Rain,Heavy Rain,320,2013-06-28 18:10:00
1:15 PM,64.4,64.4,100,29.70,1.8,NW,8.1,20.7,N/A,Rain,Rain,320,2013-06-28 18:15:00
1:20 PM,66.2,66.2,100,29.70,6.0,NW,9.2,-,N/A,Rain,Light Rain,310,2013-06-28 18:20:00
1:30 PM,68.0,66.2,94,29.70,10.0,NW,10.4,-,N/A,,Mostly Cloudy,310,2013-06-28 18:30:00
1:57 PM,69.8,66.2,88,29.69,10.0,WNW,11.5,-,N/A,Rain,Light Rain,300,2013-06-28 18:57:00
1:58 PM,69.8,66.2,88,29.69,10.0,NW,12.7,-,0.31,Rain,Light Rain,310,2013-06-28 18:58:00
2:09 PM,69.8,68.0,94,29.68,10.0,WNW,10.4,-,N/A,,Scattered Clouds,300,2013-06-28 19:09:00
2:19 PM,69.8,66.2,88,29.68,10.0,West,12.7,-,N/A,,Mostly Cloudy,280,2013-06-28 19:19:00
2:24 PM,71.6,66.2,83,29.68,10.0,West,10.4,-,N/A,,Scattered Clouds,280,2013-06-28 19:24:00
2:39 PM,71.6,66.2,83,29.68,10.0,West,10.4,18.4,N/A,,Mostly Cloudy,280,2013-06-28 19:39:00
2:49 PM,71.6,66.2,83,29.67,10.0,WNW,12.7,-,N/A,,Mostly Cloudy,300,2013-06-28 19:49:00
2:58 PM,71.2,64.8,80,29.67,10.0,WNW,11.5,20.7,0.00,,Mostly Cloudy,300,2013-06-28 19:58:00
3:33 PM,73.4,64.4,73,29.67,10.0,WNW,12.7,-,N/A,,Mostly Cloudy,300,2013-06-28 20:33:00
3:38 PM,73.4,66.2,78,29.66,10.0,WNW,11.5,-,N/A,,Mostly Cloudy,300,2013-06-28 20:38:00
3:58 PM,75.0,64.9,71,29.66,10.0,WNW,15.0,18.4,N/A,,Scattered Clouds,290,2013-06-28 20:58:00
4:14 PM,73.4,64.4,73,29.67,10.0,NNW,13.8,-,N/A,,Scattered Clouds,330,2013-06-28 21:14:00
4:58 PM,74.7,66.0,74,29.66,10.0,WNW,10.4,-,N/A,,Scattered Clouds,290,2013-06-28 21:58:00
5:09 PM,73.4,66.2,78,29.67,4.0,NW,11.5,17.3,N/A,Rain,Light Rain,310,2013-06-28 22:09:00
5:10 PM,73.4,66.2,78,29.67,3.0,NW,12.7,18.4,N/A,Rain,Heavy Rain,320,2013-06-28 22:10:00
5:15 PM,71.6,66.2,83,29.66,2.5,North,9.2,18.4,N/A,Rain,Rain,350,2013-06-28 22:15:00
5:20 PM,69.8,66.2,88,29.67,6.0,NW,6.9,18.4,N/A,Rain,Light Rain,310,2013-06-28 22:20:00
5:23 PM,69.8,66.2,88,29.67,3.0,NW,12.7,-,N/A,Rain,Heavy Rain,320,2013-06-28 22:23:00
5:27 PM,68.0,66.2,94,29.67,0.8,WNW,11.5,23.0,N/A,Rain,Heavy Rain,300,2013-06-28 22:27:00
5:32 PM,68.0,66.2,94,29.68,0.5,NW,11.5,23.0,N/A,Fog-Rain,Heavy Rain,310,2013-06-28 22:32:00
5:36 PM,66.2,66.2,100,29.68,1.0,NW,9.2,-,N/A,Rain-Thunderstorm,Heavy Thunderstorms and Rain,320,2013-06-28 22:36:00
5:41 PM,66.2,66.2,100,29.67,1.2,NNW,9.2,19.6,N/A,Rain-Thunderstorm,Heavy Thunderstorms and Rain,330,2013-06-28 22:41:00
5:46 PM,66.2,66.2,100,29.68,2.5,NW,11.5,20.7,N/A,Rain-Thunderstorm,Light Thunderstorms and Rain,320,2013-06-28 22:46:00
5:51 PM,66.2,66.2,100,29.68,7.0,NW,8.1,20.7,N/A,Rain,Light Rain,320,2013-06-28 22:51:00
5:58 PM,66.4,65.7,98,29.69,10.0,NNW,8.1,-,0.44,Rain,Light Rain,330,2013-06-28 22:58:00
6:03 PM,66.2,66.2,100,29.67,10.0,NW,5.8,-,N/A,,Light Drizzle,320,2013-06-28 23:03:00
6:04 PM,66.2,66.2,100,29.67,10.0,NW,5.8,-,N/A,,Scattered Clouds,320,2013-06-28 23:04:00
6:06 PM,66.2,66.2,100,29.68,10.0,NW,6.9,-,N/A,,Light Drizzle,320,2013-06-28 23:06:00
6:19 PM,66.2,66.2,100,29.68,10.0,WNW,5.8,-,N/A,Rain,Light Rain,300,2013-06-28 23:19:00
6:42 PM,66.2,64.4,94,29.67,10.0,NW,8.1,-,N/A,,Partly Cloudy,310,2013-06-28 23:42:00
6:58 PM,66.2,64.8,95,29.67,10.0,NW,6.9,-,0.01,,Clear,320,2013-06-28 23:58:00
7:58 PM,66.4,64.4,93,29.69,10.0,NW,10.4,-,N/A,,Unknown,310,2013-06-29 00:58:00
8:47 PM,64.4,64.4,100,29.69,10.0,WNW,6.9,-,N/A,Rain,Light Rain,300,2013-06-29 01:47:00
8:58 PM,64.9,64.9,100,29.69,10.0,WNW,5.8,-,0.00,Rain,Light Rain,300,2013-06-29 01:58:00
9:03 PM,64.4,64.4,100,29.69,10.0,WNW,5.8,-,N/A,,Partly Cloudy,300,2013-06-29 02:03:00
9:06 PM,64.4,64.4,100,29.69,10.0,WNW,4.6,-,N/A,,Light Drizzle,290,2013-06-29 02:06:00
9:20 PM,64.4,64.4,100,29.70,10.0,WNW,5.8,-,N/A,,Clear,300,2013-06-29 02:20:00
9:50 PM,64.4,64.4,100,29.70,10.0,WNW,5.8,-,N/A,,Light Drizzle,300,2013-06-29 02:50:00
9:58 PM,64.8,64.8,100,29.70,10.0,WNW,4.6,-,0.00,,Light Drizzle,300,2013-06-29 02:58:00
10:26 PM,64.4,64.4,100,29.70,10.0,NW,5.8,-,N/A,,Scattered Clouds,320,2013-06-29 03:26:00
10:51 PM,64.4,64.4,100,29.70,10.0,NW,6.9,-,N/A,,Mostly Cloudy,320,2013-06-29 03:51:00
10:56 PM,64.4,64.4,100,29.70,10.0,NW,6.9,-,N/A,,Mostly Cloudy,320,2013-06-29 03:56:00
10:58 PM,64.4,64.4,100,29.70,10.0,NW,5.8,-,0.01,,Mostly Cloudy,320,2013-06-29 03:58:00
11:55 PM,64.4,64.4,100,29.70,10.0,NNW,5.8,-,N/A,,Light Drizzle,330,2013-06-29 04:55:00
11:58 PM,64.4,64.4,100,29.70,10.0,NNW,4.6,-,N/A,,Light Drizzle,330,2013-06-29 04:58:00